Weather History for Washington, MO

Change the Weather History Date:

Wednesday, May 29, 2013

  Actual Average (KSTL) Record (KSTL)
Temperature  
Mean Temperature 77 °F 71 °F  
Max Temperature 86 °F 80 °F 94 °F (1926)
Min Temperature 68 °F 61 °F 41 °F (1984)
Degree Days  
Heating Degree Days 0 1  
Month to date heating degree days 73  
Since 1 July heating degree days 4529  
Cooling Degree Days 12 6  
Month to date cooling degree days 114  
Year to date cooling degree days 160  
Growing Degree Days 27 (Base 50)    
Moisture  
Dew Point 65 °F    
Average Humidity 67    
Maximum Humidity 94    
Minimum Humidity 45    
Precipitation  
Precipitation 0.00 in 0.17 in 2.13 in (1898)
Month to date precipitation 4.39  
Year to date precipitation 16.04  
Snow  
Snow 0.00 in 0.00 in 0.00 in (2012)
Month to date snowfall 0.0  
Since 1 July snowfall 17.7  
Snow Depth -    
Sea Level Pressure  
Sea Level Pressure 29.89 in    
Wind  
Wind Speed 7 mph (SSE)    
Max Wind Speed 21 mph    
Max Gust Speed 28 mph    
Visibility 10 miles    
Events      
T = Trace of Precipitation, MM = Missing Value Source: NWS Daily Summary

Daily Weather History Graph

Daily Weather History Graph

Search for Another Location

Airport:

Trip Planner

Search our weather history database for the weather conditions in past years. The results will help you decide how hot, cold, wet, or windy it might be!

Date:

Astronomy

May. 29, 2013 Rise Set
Actual Time 5:42 AM CDT 8:20 PM CDT
Civil Twilight 5:11 AM CDT 8:51 PM CDT
Nautical Twilight 4:32 AM CDT 9:30 PM CDT
Astronomical Twilight 3:49 AM CDT 10:13 PM CDT
Moon No Moon Rise 10:40 AM CDT (5/29)
Length of Visible Light 15h 40m
Length of Day
14h 38m
Waning Gibbous, 73% of the Moon is Illuminated
May 29
Waning Gibbous
May 31
Last Quarter
Jun 8
New
Jun 16
First Quarter
Jun 23
Full

Hourly Weather History & Observations

Time (CDT) Temp. Heat Index Dew Point Humidity Pressure Visibility Wind Dir Wind Speed Gust Speed Precip Events Conditions
12:15 AM 73.4 °F - 64.4 °F 73% 29.90 in 10.0 mi Calm Calm - N/A   Clear
12:35 AM 73.4 °F - 64.4 °F 73% 29.90 in 10.0 mi Calm Calm - N/A   Clear
12:55 AM 71.6 °F - 66.2 °F 83% 29.91 in 10.0 mi Calm Calm - N/A   Clear
1:15 AM 71.6 °F - 64.4 °F 78% 29.91 in 10.0 mi Calm Calm - N/A   Clear
1:35 AM 73.4 °F - 64.4 °F 73% 29.91 in 10.0 mi Calm Calm - N/A   Clear
1:55 AM 71.6 °F - 64.4 °F 78% 29.91 in 10.0 mi East 3.5 mph - N/A   Clear
2:15 AM 71.6 °F - 64.4 °F 78% 29.91 in 10.0 mi Calm Calm - N/A   Clear
2:35 AM 71.6 °F - 64.4 °F 78% 29.92 in 10.0 mi East 3.5 mph - N/A   Clear
2:55 AM 69.8 °F - 66.2 °F 88% 29.93 in 10.0 mi Calm Calm - N/A   Scattered Clouds
3:15 AM 68.0 °F - 66.2 °F 94% 29.93 in 10.0 mi Calm Calm - N/A   Overcast
3:35 AM 68.0 °F - 66.2 °F 94% 29.93 in 10.0 mi SE 4.6 mph - N/A   Mostly Cloudy
3:55 AM 69.8 °F - 66.2 °F 88% 29.93 in 10.0 mi SE 5.8 mph - N/A   Clear
4:15 AM 71.6 °F - 66.2 °F 83% 29.92 in 10.0 mi ESE 6.9 mph - N/A   Clear
4:35 AM 71.6 °F - 64.4 °F 78% 29.92 in 10.0 mi ESE 6.9 mph - N/A   Clear
4:55 AM 71.6 °F - 64.4 °F 78% 29.93 in 10.0 mi SE 4.6 mph - N/A   Clear
5:15 AM 68.0 °F - 66.2 °F 94% 29.93 in 10.0 mi SE 5.8 mph - N/A   Clear
5:35 AM 69.8 °F - 64.4 °F 83% 29.93 in 10.0 mi SE 8.1 mph - N/A   Clear
5:55 AM 69.8 °F - 64.4 °F 83% 29.92 in 10.0 mi SE 9.2 mph - N/A   Clear
6:15 AM 69.8 °F - 64.4 °F 83% 29.92 in 10.0 mi SE 9.2 mph - N/A   Clear
6:35 AM 69.8 °F - 64.4 °F 83% 29.92 in 10.0 mi SSE 6.9 mph - N/A   Clear
6:55 AM 69.8 °F - 64.4 °F 83% 29.93 in 10.0 mi SE 6.9 mph - N/A   Clear
7:15 AM 69.8 °F - 64.4 °F 83% 29.93 in 10.0 mi SSE 5.8 mph - N/A   Clear
7:35 AM 69.8 °F - 64.4 °F 83% 29.94 in 10.0 mi SE 6.9 mph - N/A   Clear
7:55 AM 71.6 °F - 64.4 °F 78% 29.95 in 10.0 mi SE 5.8 mph - N/A   Clear
8:15 AM 71.6 °F - 66.2 °F 83% 29.95 in 10.0 mi SE 6.9 mph - N/A   Clear
8:35 AM 73.4 °F - 66.2 °F 78% 29.95 in 10.0 mi SSE 8.1 mph - N/A   Clear
8:55 AM 75.2 °F - 66.2 °F 73% 29.95 in 10.0 mi South 9.2 mph - N/A   Clear
9:15 AM 75.2 °F - 66.2 °F 73% 29.95 in 10.0 mi South 10.4 mph - N/A   Clear
9:35 AM 77.0 °F - 66.2 °F 69% 29.94 in 10.0 mi South 10.4 mph - N/A   Clear
9:55 AM 80.6 °F 82.7 °F 66.2 °F 61% 29.92 in 10.0 mi SSW 16.1 mph 23.0 mph N/A   Clear
10:15 AM 80.6 °F 82.7 °F 66.2 °F 61% 29.91 in 10.0 mi South 15.0 mph 21.9 mph N/A   Clear
10:35 AM 80.6 °F 82.7 °F 66.2 °F 61% 29.91 in 10.0 mi South 15.0 mph 19.6 mph N/A   Clear
10:55 AM 82.4 °F 84.6 °F 66.2 °F 58% 29.91 in 10.0 mi SSW 16.1 mph 21.9 mph N/A   Clear
11:15 AM 82.4 °F 84.6 °F 66.2 °F 58% 29.91 in 10.0 mi South 13.8 mph 20.7 mph N/A   Clear
11:35 AM 82.4 °F 84.6 °F 66.2 °F 58% 29.90 in 10.0 mi South 16.1 mph 20.7 mph N/A   Clear
11:55 AM 84.2 °F 86.6 °F 66.2 °F 55% 29.90 in 10.0 mi South 13.8 mph 19.6 mph N/A   Clear
12:15 PM 84.2 °F 85.6 °F 64.4 °F 51% 29.91 in 10.0 mi SSW 17.3 mph 23.0 mph N/A   Clear
12:35 PM 84.2 °F 85.6 °F 64.4 °F 51% 29.90 in 10.0 mi SSW 16.1 mph - N/A   Clear
12:55 PM 84.2 °F 86.6 °F 66.2 °F 55% 29.90 in 10.0 mi South 15.0 mph 20.7 mph N/A   Partly Cloudy
1:15 PM 84.2 °F 86.6 °F 66.2 °F 55% 29.89 in 10.0 mi South 17.3 mph 24.2 mph N/A   Partly Cloudy
1:35 PM 84.2 °F 86.6 °F 66.2 °F 55% 29.88 in 10.0 mi South 13.8 mph 23.0 mph N/A   Scattered Clouds
1:55 PM 84.2 °F 86.6 °F 66.2 °F 55% 29.88 in 10.0 mi South 20.7 mph 25.3 mph N/A   Mostly Cloudy
2:15 PM 84.2 °F 86.6 °F 66.2 °F 55% 29.88 in 10.0 mi South 16.1 mph 21.9 mph N/A   Scattered Clouds
2:35 PM 84.2 °F 86.6 °F 66.2 °F 55% 29.87 in 10.0 mi South 20.7 mph 24.2 mph N/A   Mostly Cloudy
2:55 PM 84.2 °F 86.6 °F 66.2 °F 55% 29.87 in 10.0 mi South 19.6 mph 23.0 mph N/A   Scattered Clouds
3:15 PM 86.0 °F 87.3 °F 64.4 °F 48% 29.87 in 10.0 mi South 19.6 mph 25.3 mph N/A   Partly Cloudy
3:35 PM 86.0 °F 87.3 °F 64.4 °F 48% 29.87 in 10.0 mi South 16.1 mph 24.2 mph N/A   Scattered Clouds
3:55 PM 86.0 °F 87.3 °F 64.4 °F 48% 29.87 in 10.0 mi SSW 17.3 mph 24.2 mph N/A   Partly Cloudy
4:15 PM 84.2 °F 85.6 °F 64.4 °F 51% 29.86 in 10.0 mi South 17.3 mph 26.5 mph N/A   Partly Cloudy
4:35 PM 84.2 °F 85.6 °F 64.4 °F 51% 29.85 in 10.0 mi South 17.3 mph 21.9 mph N/A   Clear
4:55 PM 86.0 °F 87.3 °F 64.4 °F 48% 29.85 in 10.0 mi South 19.6 mph 27.6 mph N/A   Clear
5:15 PM 84.2 °F 85.6 °F 64.4 °F 51% 29.84 in 10.0 mi South 15.0 mph 27.6 mph N/A   Partly Cloudy
5:35 PM 84.2 °F 85.6 °F 64.4 °F 51% 29.83 in 10.0 mi South 18.4 mph - N/A   Partly Cloudy
5:55 PM 84.2 °F 85.0 °F 62.6 °F 48% 29.83 in 10.0 mi South 17.3 mph 21.9 mph N/A   Clear
6:15 PM 84.2 °F 85.0 °F 62.6 °F 48% 29.82 in 10.0 mi SSE 17.3 mph 23.0 mph N/A   Clear
6:35 PM 84.2 °F 84.4 °F 60.8 °F 45% 29.82 in 10.0 mi South 17.3 mph 25.3 mph N/A   Clear
6:55 PM 82.4 °F 83.4 °F 62.6 °F 51% 29.82 in 10.0 mi South 13.8 mph - N/A   Clear
7:15 PM 82.4 °F 83.4 °F 62.6 °F 51% 29.82 in 10.0 mi SSE 11.5 mph - N/A   Clear
7:35 PM 80.6 °F 81.8 °F 62.6 °F 54% 29.81 in 10.0 mi SSE 11.5 mph - N/A   Clear
7:55 PM 80.6 °F 81.5 °F 60.8 °F 51% 29.80 in 10.0 mi SSE 10.4 mph - N/A   Clear
8:15 PM 78.8 °F - 62.6 °F 57% 29.79 in 10.0 mi SSE 9.2 mph - N/A   Clear
8:35 PM 77.0 °F - 64.4 °F 65% 29.80 in 10.0 mi SSE 5.8 mph - N/A   Clear
8:55 PM 77.0 °F - 64.4 °F 65% 29.81 in 10.0 mi SSE 8.1 mph - N/A   Partly Cloudy
9:15 PM 77.0 °F - 64.4 °F 65% 29.82 in 10.0 mi SE 6.9 mph - N/A   Scattered Clouds
9:35 PM 77.0 °F - 64.4 °F 65% 29.84 in 10.0 mi SE 4.6 mph - N/A   Partly Cloudy
9:55 PM 75.2 °F - 64.4 °F 69% 29.85 in 10.0 mi SE 5.8 mph - N/A   Mostly Cloudy
10:15 PM 75.2 °F - 64.4 °F 69% 29.86 in 10.0 mi SE 6.9 mph - N/A   Mostly Cloudy
10:35 PM 75.2 °F - 64.4 °F 69% 29.87 in 10.0 mi SE 4.6 mph - N/A   Partly Cloudy
10:55 PM 73.4 °F - 66.2 °F 78% 29.88 in 10.0 mi Calm Calm - N/A   Clear
11:15 PM 73.4 °F - 66.2 °F 78% 29.89 in 10.0 mi Calm Calm - N/A   Clear
11:35 PM 75.2 °F - 66.2 °F 73% 29.88 in 10.0 mi ESE 3.5 mph - N/A   Mostly Cloudy
11:55 PM 75.2 °F - 66.2 °F 73% 29.88 in 10.0 mi ESE 8.1 mph - N/A   Overcast